Home > Weather > Papeete > Past weeks

Flag for French Polynesia Weather for the Past 2 Weeks in Papeete, Tahiti, French Polynesia

Now
82 °F

Partly cloudy.


Feels Like: 89 °F
Forecast: 78 / 86 °F
Wind: 7 mph from Northeast

Location: Tahiti-Faaa

Current Time: Apr 30, 2016 at 6:28:24 PM

Latest Report: Apr 30, 2016 at 6:00 PM


Visibility: N/A

Pressure: 29.83 "Hg

Humidity: 79%

Dew Point: 75 °F

Location of PapeeteLocation

Historic Weather in Papeete — Graph

°F

Papeete Temperature Yesterday

Maximum temperature yesterday: 84 °F (at 12:00 PM)
Minimum temperature yesterday: 77 °F (at 12:00 AM)
Average temperature yesterday: 79 °F

High & Low Weather Summary for the Past Weeks

 TemperatureHumidityPressure
High90 °F (Apr 26, 3:00 PM)100% (Apr 20, 7:00 AM)29.98 "Hg (Apr 20, 7:00 AM)
Low75 °F (Apr 18, 6:00 PM)52% (Apr 16, 3:30 PM)29.71 "Hg (Apr 20, 4:00 PM)
Average81 °F80%29.82 "Hg
* Reported Apr 15 4:00 PM — Apr 30 4:30 PM, Papeete, Weather by CustomWeather, © 2016

Note: Actual official high and low records may vary slightly from our data, if they occured in-between our weather recording intervals... More about our weather records

Advertising

Papeete Weather History for the Previous 24 Hours

Scroll right to see more
 ConditionsComfort  
Time TempWeatherWind HumidityBarometerVisibility
4:30 PM
Sat, Apr 30
84 °FBroken clouds.5 mph70%29.80 "HgN/A
4:00 PM84 °FBroken clouds.6 mph70%29.80 "HgN/A
3:30 PM86 °FBroken clouds.6 mph66%29.80 "HgN/A
3:00 PM84 °FBroken clouds.6 mph70%29.80 "HgN/A
2:00 PM86 °FBroken clouds.7 mph66%29.80 "HgN/A
1:30 PM84 °FBroken clouds.7 mph70%29.80 "HgN/A
1:00 PM86 °FBroken clouds.6 mph66%29.83 "HgN/A
12:30 PM86 °FBroken clouds.5 mph66%29.83 "HgN/A
12:00 PM84 °FBroken clouds.2 mph66%29.83 "HgN/A
11:30 AM82 °FBroken clouds.2 mph70%29.86 "HgN/A
11:00 AM81 °FBroken clouds.5 mph79%29.86 "HgN/A
10:30 AM79 °FLight rain. Fog.8 mph89%29.86 "Hg3 mi
10:00 AM79 °FBroken clouds.10 mph84%29.89 "HgN/A
9:30 AM81 °FScattered showers. Broken clouds.16 mph79%29.89 "HgN/A
9:00 AM81 °FScattered showers. Broken clouds.5 mph79%29.89 "HgN/A
8:30 AM79 °FBroken clouds.3 mph84%29.86 "HgN/A
8:00 AM79 °FBroken clouds.No wind89%29.86 "HgN/A
7:30 AM77 °FBroken clouds.3 mph89%29.86 "HgN/A
7:00 AM77 °FBroken clouds.2 mph89%29.86 "HgN/A
6:30 AM77 °FScattered clouds.6 mph83%29.83 "HgN/A
6:00 AM77 °FPassing clouds.2 mph89%29.83 "HgN/A
5:30 AM77 °FWarm.6 mph89%29.83 "HgN/A
5:00 AM75 °FMild.6 mph94%29.80 "HgN/A
4:30 AM75 °FMild.5 mph94%29.80 "HgN/A
4:00 AM75 °FMild.2 mph94%29.80 "HgN/A
3:30 AM77 °FPassing clouds.3 mph89%29.80 "HgN/A
3:00 AM77 °FPassing clouds.2 mph89%29.80 "HgN/A
2:30 AM77 °FPassing clouds.3 mph89%29.80 "HgN/A
2:00 AM77 °FPassing clouds.5 mph89%29.80 "HgN/A
1:30 AM77 °FPassing clouds.3 mph89%29.83 "HgN/A
1:00 AM77 °FPassing clouds.5 mph89%29.83 "HgN/A
12:30 AM79 °FPassing clouds.3 mph84%29.83 "HgN/A
12:00 AM79 °FPassing clouds.5 mph89%29.86 "HgN/A
11:30 PM
Fri, Apr 29
79 °FPassing clouds.3 mph84%29.86 "HgN/A
11:00 PM79 °FPassing clouds.5 mph84%29.86 "HgN/A
10:30 PM79 °FPassing clouds.2 mph89%29.86 "HgN/A
10:00 PM79 °FPassing clouds.5 mph89%29.86 "HgN/A
9:30 PM79 °FPassing clouds.7 mph89%29.86 "HgN/A
9:00 PM79 °FPassing clouds.3 mph89%29.86 "HgN/A
8:30 PM79 °FPassing clouds.3 mph89%29.86 "HgN/A
8:00 PM79 °FPassing clouds.5 mph89%29.86 "HgN/A
7:30 PM79 °FPassing clouds.No wind89%29.83 "HgN/A
7:00 PM79 °FPassing clouds.1 mph89%29.83 "HgN/A
6:30 PM79 °FPassing clouds.5 mph89%29.83 "HgN/A
6:00 PM79 °FPassing clouds.3 mph89%29.83 "HgN/A
Weather by CustomWeather, © 2016

See weather overviewHow to use our weather pages